,,,PA_Meas_PMT16A,,PR_Meas_QMR101_102,,RH_Meas_QMH101,,SR_Meas_QMS101,,TA_Meas_QMH101,,GenWind,,GenWind,
date,time,status,PA,status,PR,status,RH,status,SR,status,TA,status,DirAvg,status,SpdAvg,
2010-12-13, 00:00:04,VALID,1002.33,VALID,0,INVALID,163.693,VALID,0,VALID,23.9159,VALID,352,VALID,0.249219,
2010-12-13, 00:01:04,VALID,1002.32,VALID,0,INVALID,163.701,VALID,0,VALID,23.8964,VALID,352,VALID,0.367969,
2010-12-13, 00:02:04,VALID,1002.33,VALID,0,INVALID,163.708,VALID,0,VALID,23.8964,VALID,352,VALID,0.380078,
2010-12-13, 00:03:04,VALID,1002.3,VALID,0,INVALID,163.708,VALID,0,VALID,23.8769,VALID,352,VALID,0.540625,
2010-12-13, 00:04:04,VALID,1002.32,VALID,0,INVALID,163.708,VALID,0,VALID,23.8964,VALID,352,VALID,0.402344,
2010-12-13, 00:05:04,VALID,1002.29,VALID,0,INVALID,163.708,VALID,0,VALID,23.9159,VALID,352,VALID,0.489062,
2010-12-13, 00:06:04,VALID,1002.29,VALID,0,INVALID,163.708,VALID,0,VALID,23.8769,VALID,352,VALID,0.498828,
2010-12-13, 00:07:04,VALID,1002.31,VALID,0,INVALID,163.723,VALID,0,VALID,23.8769,VALID,352,VALID,0.494531,
2010-12-13, 00:08:04,VALID,1002.31,VALID,0,INVALID,163.685,VALID,0,VALID,23.8769,VALID,352,VALID,0.372656,
2010-12-13, 00:09:04,VALID,1002.29,VALID,0,INVALID,163.746,VALID,0,VALID,23.8751,VALID,352,VALID,0.282422,
2010-12-13, 00:10:04,VALID,1002.27,VALID,0,INVALID,163.723,VALID,0,VALID,23.8964,VALID,352,VALID,0.401953,
2010-12-13, 00:11:04,VALID,1002.25,VALID,0,INVALID,163.723,VALID,0,VALID,23.8982,VALID,352,VALID,0.448438,
2010-12-13, 00:12:04,VALID,1002.26,VALID,0,INVALID,163.693,VALID,0,VALID,23.8751,VALID,352,VALID,0.197266,
2010-12-13, 00:13:04,VALID,1002.21,VALID,0,INVALID,163.708,VALID,0,VALID,23.8769,VALID,352,VALID,0.302734,
2010-12-13, 00:14:04,VALID,1002.2,VALID,0,INVALID,163.739,VALID,0,VALID,23.8769,VALID,352,VALID,0.391016,
2010-12-13, 00:15:04,VALID,1002.18,VALID,0,INVALID,163.701,VALID,0,VALID,23.8982,VALID,352,VALID,0.405859,
2010-12-13, 00:16:04,VALID,1002.18,VALID,0,INVALID,163.716,VALID,0,VALID,23.8769,VALID,352,VALID,0.527344,
2010-12-13, 00:17:04,VALID,1002.17,VALID,0,INVALID,163.731,VALID,0.100563,VALID,23.9177,VALID,352,VALID,0.439063,
2010-12-13, 00:18:04,VALID,1002.18,VALID,0,INVALID,163.731,VALID,0,VALID,23.8769,VALID,352,VALID,0.458203,
2010-12-13, 00:19:04,VALID,1002.2,VALID,0,INVALID,163.723,VALID,0,VALID,23.8787,VALID,352,VALID,0.413281,
2010-12-13, 00:20:04,VALID,1002.19,VALID,0,INVALID,163.723,VALID,0,VALID,23.8575,VALID,352,VALID,0.511719,
2010-12-13, 00:21:04,VALID,1002.21,VALID,0,INVALID,163.731,VALID,0,VALID,23.8982,VALID,350,VALID,0.500391,
2010-12-13, 00:22:04,VALID,1002.21,VALID,0,INVALID,163.701,VALID,0,VALID,23.8964,VALID,350,VALID,0.591406,
2010-12-13, 00:23:04,VALID,1002.18,VALID,0,INVALID,163.716,VALID,0,VALID,23.9159,VALID,350,VALID,0.476953,
2010-12-13, 00:24:04,VALID,1002.21,VALID,0,INVALID,163.731,VALID,0,VALID,23.8964,VALID,350,VALID,0.449219,
2010-12-13, 00:25:04,VALID,1002.19,VALID,0,INVALID,163.731,VALID,0,VALID,23.9177,VALID,350,VALID,0.663281,
2010-12-13, 00:26:04,VALID,1002.21,VALID,0,INVALID,163.731,VALID,0,VALID,23.9159,VALID,348,VALID,0.534766,
2010-12-13, 00:27:04,VALID,1002.2,VALID,0,INVALID,163.701,VALID,0,VALID,23.9548,VALID,348,VALID,0.332812,
2010-12-13, 00:28:04,VALID,1002.19,VALID,0,INVALID,163.708,VALID,0,VALID,23.9159,VALID,348,VALID,0.279297,
2010-12-13, 00:29:04,VALID,1002.21,VALID,0,INVALID,163.716,VALID,0,VALID,23.8751,VALID,348,VALID,0.137109,
2010-12-13, 00:30:04,VALID,1002.22,VALID,0,INVALID,163.731,VALID,0,VALID,23.8964,VALID,348,VALID,0.283984,
2010-12-13, 00:31:04,VALID,1002.2,VALID,0,INVALID,163.716,VALID,0,VALID,23.8769,VALID,348,VALID,0.226563,
2010-12-13, 00:32:04,VALID,1002.2,VALID,0,INVALID,163.739,VALID,0,VALID,23.8964,VALID,348,VALID,0.328125,
2010-12-13, 00:33:04,VALID,1002.19,VALID,0,INVALID,163.708,VALID,0,VALID,23.8964,VALID,348,VALID,0.236719,
2010-12-13, 00:34:04,VALID,1002.2,VALID,0,INVALID,163.731,VALID,0,VALID,23.8769,VALID,348,VALID,0.0570313,
2010-12-13, 00:35:04,VALID,1002.16,VALID,0,INVALID,163.716,VALID,0,VALID,23.8964,VALID,348,VALID,0,
2010-12-13, 00:36:04,VALID,1002.15,VALID,0,INVALID,163.708,VALID,0.100563,VALID,23.8964,VALID,348,VALID,0,
2010-12-13, 00:37:04,VALID,1002.15,VALID,0,INVALID,163.701,VALID,0,VALID,23.8964,VALID,348,VALID,0.130078,
2010-12-13, 00:38:04,VALID,1002.14,VALID,0,INVALID,163.739,VALID,0,VALID,23.8769,VALID,348,VALID,0.319141,
2010-12-13, 00:39:04,VALID,1002.12,VALID,0,INVALID,163.723,VALID,0,VALID,23.8575,VALID,348,VALID,0.352734,
2010-12-13, 00:40:04,VALID,1002.1,VALID,0,INVALID,163.708,VALID,0,VALID,23.8593,VALID,348,VALID,0.233594,
2010-12-13, 00:41:04,VALID,1002.1,VALID,0,INVALID,163.731,VALID,0,VALID,23.7991,VALID,348,VALID,0.359375,
2010-12-13, 00:42:04,VALID,1002.11,VALID,0,INVALID,163.731,VALID,0,VALID,23.8185,VALID,348,VALID,0.288672,
2010-12-13, 00:43:04,VALID,1002.07,VALID,0,INVALID,163.731,VALID,0,VALID,23.7778,VALID,348,VALID,0.345703,
2010-12-13, 00:44:04,VALID,1002.07,VALID,0,INVALID,163.731,VALID,0.100563,VALID,23.7796,VALID,348,VALID,0.463672,
2010-12-13, 00:45:04,VALID,1002.07,VALID,0,INVALID,163.731,VALID,0,VALID,23.7796,VALID,348,VALID,0.288672,
2010-12-13, 00:46:04,VALID,1002.04,VALID,0,INVALID,163.716,VALID,0,VALID,23.7796,VALID,348,VALID,0.246484,
2010-12-13, 00:47:04,VALID,1002.04,VALID,0,INVALID,163.739,VALID,0,VALID,23.7796,VALID,348,VALID,0.442969,
2010-12-13, 00:48:04,VALID,1002.04,VALID,0,INVALID,163.723,VALID,0,VALID,23.7194,VALID,348,VALID,0.487891,
2010-12-13, 00:49:04,VALID,1002,VALID,0,INVALID,163.739,VALID,0,VALID,23.7194,VALID,348,VALID,0.48125,
2010-12-13, 00:50:04,VALID,1002,VALID,0,INVALID,163.708,VALID,0,VALID,23.7212,VALID,348,VALID,0.607031,
2010-12-13, 00:51:04,VALID,1001.98,VALID,0,INVALID,163.746,VALID,0,VALID,23.7212,VALID,348,VALID,0.520703,
2010-12-13, 00:52:04,VALID,1002,VALID,0,INVALID,163.723,VALID,0,VALID,23.7212,VALID,351,VALID,0.654688,
2010-12-13, 00:53:04,VALID,1001.99,VALID,0,INVALID,163.731,VALID,0,VALID,23.723,VALID,351,VALID,0.638281,
2010-12-13, 00:54:04,VALID,1001.97,VALID,0,INVALID,163.723,VALID,0,VALID,23.8009,VALID,347,VALID,0.607813,
2010-12-13, 00:55:04,VALID,1001.96,VALID,0,INVALID,163.739,VALID,0,VALID,23.7814,VALID,353,VALID,0.652734,
2010-12-13, 00:56:04,VALID,1001.99,VALID,0,INVALID,163.746,VALID,0,VALID,23.7796,VALID,352,VALID,0.693359,
2010-12-13, 00:57:04,VALID,1001.97,VALID,0,INVALID,163.746,VALID,0,VALID,23.7991,VALID,346,VALID,0.523438,
2010-12-13, 00:58:04,VALID,1002,VALID,0,INVALID,163.739,VALID,0,VALID,23.8009,VALID,346,VALID,0.530078,
2010-12-13, 00:59:04,VALID,1002,VALID,0,INVALID,163.769,VALID,0,VALID,23.7796,VALID,349,VALID,0.503906,
2010-12-13, 01:00:04,VALID,1001.98,VALID,0,INVALID,163.746,VALID,0,VALID,23.7991,VALID,349,VALID,0.694922,
2010-12-13, 01:01:04,VALID,1002,VALID,0,INVALID,163.731,VALID,0,VALID,23.838,VALID,348,VALID,0.465234,
2010-12-13, 01:02:04,VALID,1001.99,VALID,0,INVALID,163.701,VALID,0,VALID,23.838,VALID,346,VALID,0.574219,
2010-12-13, 01:03:04,VALID,1002,VALID,0,INVALID,163.739,VALID,0,VALID,23.8575,VALID,340,VALID,0.461719,
2010-12-13, 01:04:04,VALID,1001.98,VALID,0,INVALID,163.716,VALID,0,VALID,23.838,VALID,340,VALID,0.213281,
2010-12-13, 01:05:04,VALID,1001.99,VALID,0,INVALID,163.716,VALID,0,VALID,23.838,VALID,340,VALID,0.385547,
2010-12-13, 01:06:04,VALID,1001.98,VALID,0,INVALID,163.731,VALID,0,VALID,23.8185,VALID,340,VALID,0.430469,
2010-12-13, 01:07:04,VALID,1001.96,VALID,0,INVALID,163.739,VALID,0,VALID,23.8593,VALID,340,VALID,0.398047,
2010-12-13, 01:08:04,VALID,1001.95,VALID,0,INVALID,163.708,VALID,0,VALID,23.8185,VALID,340,VALID,0.460938,
2010-12-13, 01:09:04,VALID,1001.98,VALID,0,INVALID,163.731,VALID,0,VALID,23.8185,VALID,340,VALID,0.365234,
2010-12-13, 01:10:04,VALID,1001.99,VALID,0,INVALID,163.731,VALID,0,VALID,23.7796,VALID,340,VALID,0.469531,
2010-12-13, 01:11:04,VALID,1001.95,VALID,0,INVALID,163.746,VALID,0,VALID,23.7814,VALID,340,VALID,0.4625,
2010-12-13, 01:12:04,VALID,1001.94,VALID,0,INVALID,163.739,VALID,0,VALID,23.7601,VALID,340,VALID,0.294141,
2010-12-13, 01:13:04,VALID,1001.92,VALID,0,INVALID,163.746,VALID,0,VALID,23.7407,VALID,340,VALID,0.307422,
2010-12-13, 01:14:04,VALID,1001.91,VALID,0,INVALID,163.731,VALID,0.100563,VALID,23.7194,VALID,340,VALID,0.505469,
2010-12-13, 01:15:04,VALID,1001.92,VALID,0,INVALID,163.723,VALID,0,VALID,23.7407,VALID,340,VALID,0.323438,
2010-12-13, 01:16:04,VALID,1001.93,VALID,0,INVALID,163.739,VALID,0,VALID,23.7389,VALID,341,VALID,0.455859,
2010-12-13, 01:17:04,VALID,1001.93,VALID,0,INVALID,163.723,VALID,0,VALID,23.7601,VALID,349,VALID,0.434766,
2010-12-13, 01:18:04,VALID,1001.93,VALID,0,INVALID,163.716,VALID,0.100563,VALID,23.7601,VALID,349,VALID,0.436719,
2010-12-13, 01:19:04,VALID,1001.93,VALID,0,INVALID,163.716,VALID,0,VALID,23.7601,VALID,349,VALID,0.301562,
2010-12-13, 01:20:04,VALID,1001.93,VALID,0,INVALID,163.739,VALID,0,VALID,23.7619,VALID,349,VALID,0.278125,
2010-12-13, 01:21:04,VALID,1001.93,VALID,0,INVALID,163.739,VALID,0,VALID,23.7407,VALID,349,VALID,0.244531,
2010-12-13, 01:22:04,VALID,1001.93,VALID,0,INVALID,163.731,VALID,0,VALID,23.7389,VALID,349,VALID,0.153125,
2010-12-13, 01:23:04,VALID,1001.92,VALID,0,INVALID,163.739,VALID,0,VALID,23.7194,VALID,349,VALID,0.178125,
2010-12-13, 01:24:04,VALID,1001.93,VALID,0,INVALID,163.731,VALID,0,VALID,23.7407,VALID,349,VALID,0,
2010-12-13, 01:25:04,VALID,1001.92,VALID,0,INVALID,163.731,VALID,0,VALID,23.7407,VALID,349,VALID,0,
2010-12-13, 01:26:04,VALID,1001.91,VALID,0,INVALID,163.723,VALID,0,VALID,23.7619,VALID,349,VALID,0,
2010-12-13, 01:27:04,VALID,1001.87,VALID,0,INVALID,163.746,VALID,0,VALID,23.7796,VALID,348,VALID,0.515625,
2010-12-13, 01:28:04,VALID,1001.86,VALID,0,INVALID,163.708,VALID,0,VALID,23.8185,VALID,354,VALID,0.862891,
2010-12-13, 01:29:04,VALID,1001.9,VALID,0,INVALID,163.723,VALID,0,VALID,23.8769,VALID,349,VALID,1.00273,
2010-12-13, 01:30:04,VALID,1001.89,VALID,0,INVALID,163.716,VALID,0,VALID,23.9177,VALID,350,VALID,0.534766,
2010-12-13, 01:31:04,VALID,1001.87,VALID,0,INVALID,163.723,VALID,0,VALID,23.9159,VALID,350,VALID,0.469531,
2010-12-13, 01:32:04,VALID,1001.88,VALID,0,INVALID,163.731,VALID,0,VALID,23.9371,VALID,350,VALID,0.426953,
2010-12-13, 01:33:04,VALID,1001.87,VALID,0,INVALID,163.708,VALID,0,VALID,23.9371,VALID,350,VALID,0.474219,
2010-12-13, 01:34:04,VALID,1001.88,VALID,0,INVALID,163.716,VALID,0,VALID,23.8769,VALID,350,VALID,0.462109,
2010-12-13, 01:35:04,VALID,1001.87,VALID,0,INVALID,163.716,VALID,0,VALID,23.8575,VALID,350,VALID,0.398828,
2010-12-13, 01:36:04,VALID,1001.85,VALID,0,INVALID,163.731,VALID,0,VALID,23.8575,VALID,350,VALID,0.429688,
2010-12-13, 01:37:04,VALID,1001.83,VALID,0,INVALID,163.723,VALID,0,VALID,23.8769,VALID,350,VALID,0.450391,
2010-12-13, 01:38:04,VALID,1001.81,VALID,0,INVALID,163.716,VALID,0,VALID,23.8769,VALID,6,VALID,0.560938,
2010-12-13, 01:39:04,VALID,1001.78,VALID,0,INVALID,163.731,VALID,0,VALID,23.8964,VALID,6,VALID,0.475781,
2010-12-13, 01:40:04,VALID,1001.78,VALID,0,INVALID,163.746,VALID,0,VALID,23.8964,VALID,6,VALID,0.420312,
2010-12-13, 01:41:04,VALID,1001.78,VALID,0,INVALID,163.716,VALID,0,VALID,23.9371,VALID,6,VALID,0.4875,
2010-12-13, 01:42:04,VALID,1001.75,VALID,0,INVALID,163.708,VALID,0,VALID,23.9159,VALID,6,VALID,0.342187,
2010-12-13, 01:43:04,VALID,1001.74,VALID,0,INVALID,163.731,VALID,0,VALID,23.8946,VALID,6,VALID,0.511719,
2010-12-13, 01:44:04,VALID,1001.74,VALID,0,INVALID,163.723,VALID,0,VALID,23.9159,VALID,6,VALID,0.433594,
2010-12-13, 01:45:04,VALID,1001.74,VALID,0,INVALID,163.701,VALID,0,VALID,23.8964,VALID,6,VALID,0.421484,
2010-12-13, 01:46:04,VALID,1001.72,VALID,0,INVALID,163.716,VALID,0.100563,VALID,23.8964,VALID,6,VALID,0.355078,
2010-12-13, 01:47:04,VALID,1001.73,VALID,0,INVALID,163.723,VALID,0,VALID,23.8575,VALID,6,VALID,0.332812,
2010-12-13, 01:48:04,VALID,1001.71,VALID,0,INVALID,163.731,VALID,0.100563,VALID,23.8575,VALID,6,VALID,0.482422,
2010-12-13, 01:49:04,VALID,1001.7,VALID,0,INVALID,163.723,VALID,0.100563,VALID,23.838,VALID,4,VALID,0.262109,
2010-12-13, 01:50:04,VALID,1001.69,VALID,0,INVALID,163.762,VALID,0.100563,VALID,23.8982,VALID,1,VALID,0.842188,
2010-12-13, 01:51:04,VALID,1001.67,VALID,0,INVALID,163.746,VALID,0,VALID,23.9159,VALID,344,VALID,0.542578,
2010-12-13, 01:52:04,VALID,1001.66,VALID,0,INVALID,163.723,VALID,0,VALID,23.914,VALID,345,VALID,0.433984,
2010-12-13, 01:53:04,VALID,1001.63,VALID,0,INVALID,163.731,VALID,0,VALID,23.914,VALID,345,VALID,0.517187,
2010-12-13, 01:54:04,VALID,1001.63,VALID,0,INVALID,163.723,VALID,0.100563,VALID,23.9159,VALID,345,VALID,0.540625,
2010-12-13, 01:55:04,VALID,1001.6,VALID,0,INVALID,163.708,VALID,0,VALID,23.8982,VALID,345,VALID,0.334375,
2010-12-13, 01:56:04,VALID,1001.59,VALID,0,INVALID,163.739,VALID,0,VALID,23.8575,VALID,345,VALID,0.335547,
2010-12-13, 01:57:04,VALID,1001.56,VALID,0,INVALID,163.723,VALID,0,VALID,23.8787,VALID,345,VALID,0.474609,
2010-12-13, 01:58:04,VALID,1001.55,VALID,0,INVALID,163.708,VALID,0,VALID,23.8575,VALID,345,VALID,0.396484,
2010-12-13, 01:59:04,VALID,1001.51,VALID,0,INVALID,163.685,VALID,0,VALID,23.838,VALID,345,VALID,0.516406,
2010-12-13, 02:00:04,VALID,1001.49,VALID,0,INVALID,163.716,VALID,0,VALID,23.838,VALID,345,VALID,0.427344,
2010-12-13, 02:01:04,VALID,1001.5,VALID,0,INVALID,163.731,VALID,0.100563,VALID,23.838,VALID,352,VALID,0.319922,
2010-12-13, 02:02:04,VALID,1001.49,VALID,0,INVALID,163.739,VALID,0,VALID,23.8593,VALID,352,VALID,0.432031,
2010-12-13, 02:03:04,VALID,1001.45,VALID,0,INVALID,163.716,VALID,0.100563,VALID,23.838,VALID,352,VALID,0.261328,
2010-12-13, 02:04:04,VALID,1001.45,VALID,0,INVALID,163.716,VALID,0.100563,VALID,23.838,VALID,352,VALID,0.496484,
2010-12-13, 02:05:04,VALID,1001.48,VALID,0,INVALID,163.723,VALID,0,VALID,23.838,VALID,352,VALID,0.326953,
2010-12-13, 02:06:04,VALID,1001.46,VALID,0,INVALID,163.739,VALID,0.100563,VALID,23.838,VALID,352,VALID,0.25625,
2010-12-13, 02:07:04,VALID,1001.46,VALID,0,INVALID,163.723,VALID,0.100563,VALID,23.8167,VALID,352,VALID,0.288281,
2010-12-13, 02:08:04,VALID,1001.47,VALID,0,INVALID,163.723,VALID,0,VALID,23.8185,VALID,352,VALID,0.360156,
2010-12-13, 02:09:04,VALID,1001.45,VALID,0,INVALID,163.708,VALID,0,VALID,23.8185,VALID,352,VALID,0.44375,
2010-12-13, 02:10:04,VALID,1001.48,VALID,0,INVALID,163.723,VALID,0,VALID,23.7991,VALID,352,VALID,0.521094,
2010-12-13, 02:11:05,VALID,1001.47,VALID,0,INVALID,163.708,VALID,0.100563,VALID,23.7796,VALID,352,VALID,0.514063,
2010-12-13, 02:12:05,VALID,1001.48,VALID,0,INVALID,163.731,VALID,0.100563,VALID,23.7796,VALID,2,VALID,0.703125,
2010-12-13, 02:13:05,VALID,1001.46,VALID,0,INVALID,163.739,VALID,0.100563,VALID,23.7796,VALID,2,VALID,0.635156,
2010-12-13, 02:14:05,VALID,1001.46,VALID,0,INVALID,163.746,VALID,0,VALID,23.7796,VALID,2,VALID,0.671484,
2010-12-13, 02:15:05,VALID,1001.48,VALID,0,INVALID,163.739,VALID,0,VALID,23.7796,VALID,2,VALID,0.428906,
2010-12-13, 02:16:05,VALID,1001.46,VALID,0,INVALID,163.731,VALID,0.100563,VALID,23.7796,VALID,2,VALID,0.300391,
2010-12-13, 02:17:05,VALID,1001.45,VALID,0,INVALID,163.746,VALID,0,VALID,23.7601,VALID,2,VALID,0.333203,
2010-12-13, 02:18:05,VALID,1001.44,VALID,0,INVALID,163.739,VALID,0.100563,VALID,23.7389,VALID,2,VALID,0.296094,
2010-12-13, 02:19:05,VALID,1001.42,VALID,0,INVALID,163.716,VALID,0.100563,VALID,23.7407,VALID,2,VALID,0.292969,
2010-12-13, 02:20:05,VALID,1001.39,VALID,0,INVALID,163.739,VALID,0.100563,VALID,23.7407,VALID,2,VALID,0.348047,
2010-12-13, 02:21:05,VALID,1001.38,VALID,0,INVALID,163.739,VALID,0.100563,VALID,23.7212,VALID,2,VALID,0.330469,
2010-12-13, 02:22:05,VALID,1001.39,VALID,0,INVALID,163.723,VALID,0,VALID,23.7212,VALID,2,VALID,0.373437,
2010-12-13, 02:23:05,VALID,1001.36,VALID,0,INVALID,163.723,VALID,0,VALID,23.7407,VALID,2,VALID,0.364062,
2010-12-13, 02:24:05,VALID,1001.38,VALID,0,INVALID,163.723,VALID,0.100563,VALID,23.7407,VALID,2,VALID,0.376563,
2010-12-13, 02:25:05,VALID,1001.39,VALID,0,INVALID,163.739,VALID,0.100563,VALID,23.7425,VALID,2,VALID,0.453516,
2010-12-13, 02:26:05,VALID,1001.4,VALID,0,INVALID,163.716,VALID,0,VALID,23.7425,VALID,2,VALID,0.497656,
2010-12-13, 02:27:05,VALID,1001.37,VALID,0,INVALID,163.731,VALID,0.100563,VALID,23.7017,VALID,2,VALID,0.587891,
2010-12-13, 02:28:05,VALID,1001.38,VALID,0,INVALID,163.746,VALID,0.100563,VALID,23.7212,VALID,2,VALID,0.460547,
2010-12-13, 02:29:05,VALID,1001.37,VALID,0,INVALID,163.723,VALID,0.100563,VALID,23.6805,VALID,1,VALID,0.460156,
2010-12-13, 02:30:05,VALID,1001.39,VALID,0,INVALID,163.731,VALID,0.100563,VALID,23.7017,VALID,1,VALID,0.424609,
2010-12-13, 02:31:05,VALID,1001.37,VALID,0,INVALID,163.731,VALID,0.100563,VALID,23.7017,VALID,1,VALID,0.631641,
2010-12-13, 02:32:05,VALID,1001.36,VALID,0,INVALID,163.731,VALID,0.100563,VALID,23.7796,VALID,1,VALID,0.844922,
2010-12-13, 02:33:05,VALID,1001.39,VALID,0,INVALID,163.716,VALID,0.100563,VALID,23.8185,VALID,8,VALID,0.627734,
2010-12-13, 02:34:05,VALID,1001.4,VALID,0,INVALID,163.739,VALID,0.100563,VALID,23.7778,VALID,8,VALID,0.746875,
2010-12-13, 02:35:05,VALID,1001.41,VALID,0,INVALID,163.716,VALID,0.100563,VALID,23.7991,VALID,8,VALID,0.619531,
2010-12-13, 02:36:05,VALID,1001.38,VALID,0,INVALID,163.731,VALID,0,VALID,23.7778,VALID,8,VALID,0.542578,
2010-12-13, 02:37:05,VALID,1001.39,VALID,0,INVALID,163.716,VALID,0.100563,VALID,23.7194,VALID,8,VALID,0.541406,
2010-12-13, 02:38:05,VALID,1001.38,VALID,0,INVALID,163.731,VALID,0,VALID,23.7212,VALID,8,VALID,0.61875,
2010-12-13, 02:39:05,VALID,1001.39,VALID,0,INVALID,163.739,VALID,0,VALID,23.7017,VALID,8,VALID,0.671094,
2010-12-13, 02:40:05,VALID,1001.37,VALID,0,INVALID,163.716,VALID,0,VALID,23.7212,VALID,8,VALID,0.597266,
2010-12-13, 02:41:05,VALID,1001.39,VALID,0,INVALID,163.739,VALID,0,VALID,23.7407,VALID,8,VALID,0.630859,
2010-12-13, 02:42:05,VALID,1001.39,VALID,0,INVALID,163.731,VALID,0,VALID,23.7601,VALID,8,VALID,0.521484,
2010-12-13, 02:43:05,VALID,1001.38,VALID,0,INVALID,163.731,VALID,0,VALID,23.7796,VALID,8,VALID,0.492188,
2010-12-13, 02:44:05,VALID,1001.41,VALID,0,INVALID,163.708,VALID,0,VALID,23.7601,VALID,8,VALID,0.4625,
2010-12-13, 02:45:05,VALID,1001.38,VALID,0,INVALID,163.723,VALID,0,VALID,23.7407,VALID,8,VALID,0.566406,
2010-12-13, 02:46:05,VALID,1001.41,VALID,0,INVALID,163.723,VALID,0,VALID,23.7601,VALID,8,VALID,0.558984,
2010-12-13, 02:47:05,VALID,1001.4,VALID,0,INVALID,163.746,VALID,0,VALID,23.7407,VALID,8,VALID,0.596484,
2010-12-13, 02:48:05,VALID,1001.39,VALID,0,INVALID,163.746,VALID,0.100563,VALID,23.7407,VALID,8,VALID,0.524219,
2010-12-13, 02:49:05,VALID,1001.39,VALID,0,INVALID,163.731,VALID,0,VALID,23.7,VALID,8,VALID,0.569922,
2010-12-13, 02:50:05,VALID,1001.4,VALID,0,INVALID,163.731,VALID,0,VALID,23.6841,VALID,8,VALID,0.446094,
2010-12-13, 02:51:05,VALID,1001.4,VALID,0,INVALID,163.739,VALID,0.100563,VALID,23.6628,VALID,8,VALID,0.507813,
2010-12-13, 02:52:05,VALID,1001.39,VALID,0,INVALID,163.769,VALID,0,VALID,23.6221,VALID,8,VALID,0.553906,
2010-12-13, 02:53:05,VALID,1001.38,VALID,0,INVALID,163.746,VALID,0,VALID,23.6239,VALID,8,VALID,0.464844,
2010-12-13, 02:54:05,VALID,1001.41,VALID,0,INVALID,163.754,VALID,0,VALID,23.6239,VALID,8,VALID,0.503125,
2010-12-13, 02:55:05,VALID,1001.37,VALID,0,INVALID,163.739,VALID,0,VALID,23.6044,VALID,8,VALID,0.189844,
2010-12-13, 02:56:05,VALID,1001.36,VALID,0,INVALID,163.739,VALID,0,VALID,23.6044,VALID,8,VALID,0.171875,
2010-12-13, 02:57:05,VALID,1001.35,VALID,0,INVALID,163.723,VALID,0,VALID,23.6257,VALID,8,VALID,0.399609,
2010-12-13, 02:58:05,VALID,1001.32,VALID,0,INVALID,163.746,VALID,0,VALID,23.6646,VALID,8,VALID,0.273047,
2010-12-13, 02:59:05,VALID,1001.3,VALID,0,INVALID,163.731,VALID,0,VALID,23.6434,VALID,8,VALID,0,
2010-12-13, 03:00:05,VALID,1001.32,VALID,0,INVALID,163.754,VALID,0.100563,VALID,23.6434,VALID,8,VALID,0.259375,
2010-12-13, 03:01:05,VALID,1001.33,VALID,0,INVALID,163.731,VALID,0,VALID,23.6628,VALID,8,VALID,0.276172,
2010-12-13, 03:02:05,VALID,1001.33,VALID,0,INVALID,163.716,VALID,0,VALID,23.6823,VALID,8,VALID,0.0121094,
2010-12-13, 03:03:05,VALID,1001.31,VALID,0,INVALID,163.746,VALID,0,VALID,23.6823,VALID,8,VALID,0.153516,
2010-12-13, 03:04:05,VALID,1001.36,VALID,0,INVALID,163.762,VALID,0.100563,VALID,23.6823,VALID,8,VALID,0.204688,
2010-12-13, 03:05:05,VALID,1001.35,VALID,0,INVALID,163.716,VALID,0,VALID,23.6805,VALID,8,VALID,0,
2010-12-13, 03:06:05,VALID,1001.38,VALID,0,INVALID,163.716,VALID,0,VALID,23.7017,VALID,8,VALID,0,
2010-12-13, 03:07:05,VALID,1001.36,VALID,0,INVALID,163.739,VALID,0,VALID,23.7212,VALID,8,VALID,0,
2010-12-13, 03:08:05,VALID,1001.42,VALID,0,INVALID,163.746,VALID,0,VALID,23.7601,VALID,8,VALID,0.278906,
2010-12-13, 03:09:05,VALID,1001.46,VALID,0,INVALID,163.716,VALID,0,VALID,23.7601,VALID,8,VALID,0.417969,
2010-12-13, 03:10:05,VALID,1001.48,VALID,0,INVALID,163.716,VALID,0,VALID,23.7601,VALID,8,VALID,0.45,
2010-12-13, 03:11:05,VALID,1001.5,VALID,0,INVALID,163.746,VALID,0,VALID,23.8009,VALID,8,VALID,0.284375,
2010-12-13, 03:12:05,VALID,1001.47,VALID,0,INVALID,163.731,VALID,0,VALID,23.7814,VALID,8,VALID,0.482422,
2010-12-13, 03:13:05,VALID,1001.5,VALID,0,INVALID,163.708,VALID,0,VALID,23.7601,VALID,8,VALID,0.203125,
2010-12-13, 03:14:05,VALID,1001.5,VALID,0,INVALID,163.746,VALID,0,VALID,23.7601,VALID,8,VALID,0.2875,
2010-12-13, 03:15:05,VALID,1001.5,VALID,0,INVALID,163.723,VALID,0,VALID,23.7407,VALID,8,VALID,0.337891,
2010-12-13, 03:16:05,VALID,1001.5,VALID,0,INVALID,163.731,VALID,0,VALID,23.7619,VALID,8,VALID,0.205859,
2010-12-13, 03:17:05,VALID,1001.48,VALID,0,INVALID,163.754,VALID,0,VALID,23.7601,VALID,8,VALID,0.210547,
2010-12-13, 03:18:05,VALID,1001.47,VALID,0,INVALID,163.723,VALID,0,VALID,23.7991,VALID,8,VALID,0.174609,
2010-12-13, 03:19:05,VALID,1001.49,VALID,0,INVALID,163.723,VALID,0,VALID,23.838,VALID,8,VALID,0.341016,
2010-12-13, 03:20:05,VALID,1001.47,VALID,0,INVALID,163.723,VALID,0,VALID,23.9177,VALID,5,VALID,0.444141,
2010-12-13, 03:21:05,VALID,1001.47,VALID,0,INVALID,163.685,VALID,0,VALID,23.9353,VALID,5,VALID,0.532422,
2010-12-13, 03:22:05,VALID,1001.44,VALID,0,INVALID,163.723,VALID,0,VALID,23.9761,VALID,4,VALID,0.387891,
2010-12-13, 03:23:05,VALID,1001.46,VALID,0,INVALID,163.723,VALID,0,VALID,23.9548,VALID,4,VALID,0.545703,
2010-12-13, 03:24:05,VALID,1001.49,VALID,0,INVALID,163.701,VALID,0,VALID,23.9159,VALID,4,VALID,0.526953,
2010-12-13, 03:25:05,VALID,1001.48,VALID,0,INVALID,163.731,VALID,0,VALID,23.8769,VALID,4,VALID,0.569141,
2010-12-13, 03:26:05,VALID,1001.46,VALID,0,INVALID,163.723,VALID,0,VALID,23.8964,VALID,4,VALID,0.553516,
2010-12-13, 03:27:05,VALID,1001.47,VALID,0,INVALID,163.723,VALID,0,VALID,23.8769,VALID,10,VALID,0.365625,
2010-12-13, 03:28:05,VALID,1001.43,VALID,0,INVALID,163.723,VALID,0,VALID,23.8185,VALID,10,VALID,0.373047,
2010-12-13, 03:29:05,VALID,1001.46,VALID,0,INVALID,163.746,VALID,0.100563,VALID,23.7991,VALID,10,VALID,0.349609,
2010-12-13, 03:30:05,VALID,1001.46,VALID,0,INVALID,163.723,VALID,0,VALID,23.8398,VALID,353,VALID,0.596484,
2010-12-13, 03:31:05,VALID,1001.46,VALID,0,INVALID,163.746,VALID,0,VALID,23.9159,VALID,337,VALID,0.391797,
2010-12-13, 03:32:05,VALID,1001.45,VALID,0,INVALID,163.723,VALID,0,VALID,23.9742,VALID,358,VALID,0.506641,
2010-12-13, 03:33:05,VALID,1001.47,VALID,0,INVALID,163.685,VALID,0,VALID,24.0521,VALID,342,VALID,0.676953,
2010-12-13, 03:34:05,VALID,1001.48,VALID,0,INVALID,163.723,VALID,0.100563,VALID,24.0716,VALID,341,VALID,0.353516,
2010-12-13, 03:35:05,VALID,1001.46,VALID,0,INVALID,163.716,VALID,0,VALID,24.091,VALID,341,VALID,0.311719,
2010-12-13, 03:36:05,VALID,1001.47,VALID,0,INVALID,163.678,VALID,0,VALID,24.1513,VALID,340,VALID,0.0121094,
2010-12-13, 03:37:05,VALID,1001.45,VALID,0,INVALID,163.693,VALID,0,VALID,24.1494,VALID,340,VALID,0.155859,
2010-12-13, 03:38:05,VALID,1001.45,VALID,0,INVALID,163.693,VALID,0,VALID,24.1494,VALID,340,VALID,0.186719,
2010-12-13, 03:39:05,VALID,1001.47,VALID,0,INVALID,163.701,VALID,0,VALID,24.2097,VALID,334,VALID,0.45,